Weather WX

World > North America > United States > Mississippi

Sabougla, Mississippi Regional Weather

Lat: 33.77N, Lon: 89.48W
Wx Zone: MSZ022
Warning FLW WEATHER ALERT - (More Info. Click Here) Warning
Feedback

Sabougla, MS Regional Weather

Expires:201906192200;;749719
ASUS44 KJAN 192110
RWRMS 

MISSISSIPPI HOURLY WEATHER ROUNDUP
NATIONAL WEATHER SERVICE JACKSON MS
400 PM CDT WED JUN 19 2019

NOTE: "FAIR: INDICATES FEW OR NO CLOUDS BELOW 12,000 FEET WITH NO
SIGNIFICANT WEATHER AND/OR OBSTRUCTIONS TO VISIBILITY.


MSZ003>006-009-014>017-022>024-029>033-037>039-192200-
NORTHEAST MISSISSIPPI
  
CITY           SKY/WX    TMP DP  RH WIND       PRES   REMARKS
ABERDEEN       FAIR      90  79  70 SW12      29.78R HAZE    HX 105   
COLUMBUS AFB   FAIR      89  71  55 SW9       29.77S HX  95           
CORINTH        FAIR      90  70  51 SW14G21   29.73F HX  95           
GOLDN TRIANGLE FAIR      88  73  61 SW6       29.79R HX  95           
STARKVILLE     FAIR      88  72  58 SW6       29.80S HX  94           
TUPELO         FAIR      90  69  50 S12       29.75F HX  94           
$$


SKY/WX - Weather  TMP - Temperature  DP - Dew Point  RH - Relative Humidity
WIND - Wind Direction/Speed PRES - Barometric Pressure VSB - Visibility
WCI - Wind Chill Index E13G22 Wind - East Wind 13 mph/Gusts of 22 mph